RA43 UUBW-UUEE

Flight info

Callsign RA43
Flight time N/A
Altitude 8000
Route DCT
Aircraft C172/L-SFG/C

Departure

Time N/A
Airport Zhukovsky International Airport (UUBW)

Arrival

Time 2026-05-06 12:37
Airport Sheremetyevo International Airport (UUEE)
Time Latitude Longitude Altitude Speed Heading
2026-05-06 12:29 55.85944 37.59702 2850 ft 110 kts 322°
2026-05-06 12:30 55.86627 37.59097 2850 ft 116 kts 344°
2026-05-06 12:30 55.87452 37.59127 2859 ft 118 kts 352°
2026-05-06 12:30 55.88274 37.59140 2860 ft 119 kts 350°
2026-05-06 12:30 55.89104 37.59196 2861 ft 119 kts 351°
2026-05-06 12:31 55.89927 37.59246 2859 ft 119 kts 353°
2026-05-06 12:31 55.90758 37.59238 2861 ft 120 kts 352°
2026-05-06 12:31 55.91591 37.59242 2860 ft 120 kts 353°
2026-05-06 12:31 55.92403 37.59156 2745 ft 107 kts 351°
2026-05-06 12:32 55.93128 37.59125 2460 ft 107 kts 349°
2026-05-06 12:32 55.93884 37.59131 2143 ft 110 kts 354°
2026-05-06 12:32 55.94656 37.59060 1848 ft 112 kts 351°
2026-05-06 12:32 55.95390 37.59055 1746 ft 100 kts 351°
2026-05-06 12:33 55.96102 37.58966 1763 ft 101 kts 344°
2026-05-06 12:33 55.96791 37.58798 1865 ft 98 kts 344°
2026-05-06 12:33 55.97387 37.58637 1941 ft 80 kts 341°
2026-05-06 12:33 55.97871 37.58239 1905 ft 66 kts 308°
2026-05-06 12:34 55.98076 37.57441 1753 ft 66 kts 290°
2026-05-06 12:34 55.98201 37.56611 1669 ft 74 kts 283°
2026-05-06 12:34 55.98271 37.55674 1564 ft 79 kts 276°
2026-05-06 12:34 55.98302 37.54672 1516 ft 88 kts 273°
2026-05-06 12:35 55.98323 37.53465 1439 ft 108 kts 276°
2026-05-06 12:35 55.98340 37.52118 1364 ft 103 kts 270°
2026-05-06 12:35 55.98313 37.50902 1282 ft 100 kts 270°
2026-05-06 12:35 55.98225 37.49576 1182 ft 110 kts 262°
2026-05-06 12:36 55.98110 37.48252 1061 ft 106 kts 261°
2026-05-06 12:36 55.97958 37.47136 1095 ft 82 kts 258°
2026-05-06 12:36 55.97833 37.46216 1045 ft 74 kts 261°
2026-05-06 12:36 55.97707 37.45312 886 ft 78 kts 261°
2026-05-06 12:37 55.97574 37.44400 712 ft 71 kts 262°
2026-05-06 12:37 55.97524 37.44041 652 ft 66 kts 258°
2026-05-06 12:37 55.97432 37.43419 633 ft 42 kts 253°
2026-05-06 12:37 55.97368 37.43002 636 ft 26 kts 250°
2026-05-06 12:38 55.97242 37.43028 634 ft 19 kts 168°
2026-05-06 12:38 55.97130 37.43081 634 ft 15 kts 166°
2026-05-06 12:38 55.97003 37.43202 634 ft 15 kts 165°
2026-05-06 12:38 55.97021 37.43194 634 ft 0 kts 166°